Total_Precipitation_Accumulation
3.16 3.56 4.23 3.70 3.14 3.02 3.15 3.11 2.95 2.84 2.73 2.66 2.54 2.35 2.06 1.75 1.62 1.56 1.45 1.38 1.30 1.30 1.24 1.26 1.28 1.25 1.41 1.60 1.67 1.71 1.74 1.83 2.06 2.36 2.54 2.54 2.63 2.80 3.07 3.26 3.10 2.34 2.26
2.58 3.13 3.68 3.35 2.81 2.74 2.77 2.85 2.83 2.76 2.72 2.60 2.58 2.34 2.13 1.88 1.65 1.49 1.37 1.28 1.24 1.23 1.10 1.12 1.20 1.17 1.28 1.42 1.55 1.58 1.73 2.01 2.52 3.01 3.22 2.97 2.95 3.11 3.21 3.13 3.03 2.46 2.20
2.04 2.36 2.73 2.89 2.67 2.58 2.47 2.58 2.69 2.56 2.56 2.37 2.28 2.13 2.07 1.89 1.58 1.34 1.24 1.23 1.26 1.22 1.06 1.10 1.15 1.10 1.22 1.38 1.48 1.50 1.75 2.22 2.95 3.77 3.96 3.20 2.78 3.12 3.20 3.02 2.70 2.29 2.03
1.68 2.10 2.20 2.50 2.43 2.29 2.19 2.33 2.38 2.43 2.28 2.16 2.01 1.87 1.83 1.79 1.52 1.22 1.13 1.14 1.13 1.09 1.06 1.12 1.14 1.17 1.20 1.26 1.37 1.61 1.93 2.25 2.95 3.57 3.53 2.60 2.19 2.51 2.75 2.44 2.21 2.06 1.82
1.58 1.88 2.19 2.25 2.07 1.97 1.89 2.01 2.15 2.16 2.04 2.05 1.89 1.77 1.66 1.55 1.36 1.15 1.06 1.08 1.06 1.05 1.03 1.07 1.20 1.28 1.24 1.25 1.39 1.69 2.08 2.49 2.94 3.15 2.66 2.76 2.65 2.39 2.28 2.12 1.98 1.78 1.57
1.27 1.41 1.79 1.94 1.82 1.80 1.72 1.74 1.87 1.86 1.87 1.91 1.81 1.68 1.70 1.62 1.47 1.22 1.08 1.06 1.10 1.12 1.12 1.14 1.27 1.32 1.22 1.21 1.38 1.74 2.10 2.60 2.73 2.10 1.74 2.09 2.08 2.07 2.07 2.04 1.87 1.65 1.55
1.17 1.26 1.49 1.77 1.67 1.63 1.59 1.53 1.62 1.69 1.70 1.70 1.69 1.50 1.55 1.57 1.47 1.26 1.13 1.09 1.04 1.08 1.17 1.21 1.26 1.28 1.24 1.30 1.43 1.77 2.22 2.59 2.32 1.68 1.47 1.76 1.65 1.75 1.99 2.06 2.00 1.72 1.49
1.13 1.17 1.42 1.70 1.67 1.61 1.57 1.55 1.64 1.69 1.57 1.52 1.52 1.41 1.41 1.45 1.43 1.37 1.25 1.21 1.11 1.12 1.24 1.27 1.27 1.23 1.25 1.38 1.62 1.82 2.21 2.21 1.71 1.52 1.43 1.52 1.27 1.59 1.87 1.85 1.78 1.65 1.44
1.43 1.41 1.46 1.51 1.55 1.61 1.76 1.84 1.91 1.82 1.55 1.46 1.48 1.41 1.34 1.33 1.33 1.29 1.34 1.31 1.25 1.24 1.31 1.42 1.38 1.35 1.38 1.51 1.64 1.84 2.25 2.41 2.00 1.79 1.53 1.55 1.28 1.60 1.95 1.78 1.60 1.52 1.54
2.19 2.03 1.79 1.63 1.72 1.63 1.70 1.95 2.06 1.77 1.53 1.47 1.54 1.52 1.49 1.55 1.55 1.57 1.49 1.47 1.54 1.63 1.68 1.74 1.65 1.57 1.61 1.74 1.87 2.06 2.32 2.19 1.98 2.11 1.97 1.56 1.35 1.73 2.03 2.11 1.86 1.63 1.55
2.69 2.50 2.22 1.98 1.80 1.85 1.84 1.90 2.22 2.03 1.79 1.86 2.07 2.07 2.20 2.57 2.35 2.35 1.88 1.88 2.07 2.27 2.33 2.34 2.26 2.12 1.98 1.90 2.15 2.37 2.23 2.03 2.39 2.52 2.27 1.59 1.62 2.16 2.38 2.46 2.26 2.04 1.89
2.73 2.46 2.32 2.26 1.94 1.92 2.02 2.43 2.92 2.52 2.37 2.47 2.77 2.69 3.03 3.07 2.88 2.16 2.16 2.55 2.80 3.15 3.24 3.21 3.21 2.83 2.42 2.17 2.44 2.48 2.19 2.30 2.73 2.36 1.98 1.60 1.79 2.33 2.70 2.76 2.54 2.27 2.19
2.58 2.48 2.25 2.53 2.29 2.35 2.69 2.76 2.94 2.98 2.89 2.89 2.98 2.97 3.21 2.87 2.52 2.42 2.81 3.22 3.51 3.66 3.79 3.78 3.67 3.10 3.09 3.22 3.18 2.87 2.75 2.67 2.93 2.53 1.96 1.81 2.02 2.48 2.86 2.95 2.73 2.50 2.36
2.50 2.46 2.50 2.66 2.75 2.96 2.99 2.86 2.71 2.50 2.49 2.67 2.86 2.82 2.96 3.06 3.05 3.01 3.28 3.47 3.71 4.05 4.44 4.31 4.28 3.93 3.85 3.59 3.36 3.36 3.15 2.80 3.10 3.15 2.54 2.14 2.30 2.77 3.04 3.07 2.89 2.76 2.79
3.17 2.97 3.05 3.27 3.26 3.22 3.25 2.99 2.52 2.35 2.22 2.25 2.41 2.52 2.46 2.83 3.14 3.18 3.10 3.25 3.16 3.36 3.79 4.40 4.29 4.45 4.33 3.88 3.38 3.27 3.36 3.19 3.13 3.05 2.58 2.51 2.75 2.85 2.96 3.03 3.05 3.04 3.06
4.17 3.94 3.74 3.88 3.51 3.29 3.24 3.00 2.75 2.40 2.41 2.29 2.21 2.14 2.32 2.59 2.93 2.94 2.93 3.21 3.22 3.11 3.28 3.78 3.96 4.38 4.33 3.93 3.33 3.04 3.06 3.14 3.01 2.89 2.69 2.62 2.70 2.58 2.69 3.10 3.46 3.62 3.52
5.29 4.89 4.29 4.02 3.75 3.56 3.42 3.06 2.70 2.52 2.34 2.46 2.43 2.25 2.27 2.38 2.64 2.66 2.78 2.84 2.87 2.76 2.90 3.14 3.37 3.64 3.57 3.40 3.32 3.09 2.96 2.86 2.67 2.75 2.79 2.67 2.38 2.53 2.67 2.92 3.27 3.54 3.76
6.03 5.48 4.73 3.98 4.09 4.06 3.85 3.25 2.77 2.56 2.49 2.46 2.35 2.16 2.04 2.16 2.15 2.30 2.36 2.34 2.38 2.27 2.44 2.82 2.86 3.09 3.27 3.27 3.43 3.15 2.93 2.97 2.75 2.71 2.69 2.73 2.74 2.40 2.71 2.86 3.03 3.20 3.56
6.15 5.99 5.36 5.21 5.03 4.41 3.75 3.18 2.80 2.58 2.52 2.29 2.23 2.17 2.04 1.96 2.03 2.18 2.34 2.40 2.07 2.10 2.26 2.07 2.52 2.78 2.98 3.01 2.59 2.71 2.47 2.52 2.49 2.17 2.28 2.24 2.49 2.56 2.75 2.67 2.88 2.94 3.29
5.17 5.09 5.02 5.14 4.74 4.16 3.55 3.12 2.90 2.65 2.38 2.21 2.16 2.20 2.15 2.07 2.10 2.44 2.26 2.11 1.92 2.24 2.54 2.60 2.93 2.85 2.70 2.72 2.22 2.31 2.14 1.99 2.08 1.99 1.88 1.98 2.13 2.10 2.48 2.67 2.75 2.46 2.81
3.70 3.81 4.14 4.30 4.07 3.63 3.23 2.76 2.62 2.56 2.34 2.14 2.06 1.89 2.06 2.02 2.26 2.62 2.36 2.64 2.29 2.32 2.49 2.55 2.79 2.71 2.40 2.33 2.73 2.76 2.18 1.74 1.81 1.71 1.66 1.87 1.87 1.99 2.40 2.72 2.89 2.86 2.66
2.90 3.19 3.54 3.76 3.63 3.07 2.82 2.64 2.53 2.50 2.33 2.32 2.23 2.22 1.98 1.98 2.22 2.28 2.62 2.42 2.44 2.56 2.59 2.69 2.84 2.83 2.53 2.45 2.86 3.20 2.80 2.69 2.33 1.58 1.66 1.80 1.82 2.05 2.13 2.16 2.48 2.92 2.82
2.71 2.94 2.83 3.07 3.25 2.97 2.86 2.82 2.72 2.69 2.49 2.57 2.52 2.40 2.02 1.90 1.91 2.10 2.29 2.30 2.52 2.33 2.66 2.90 2.85 2.95 2.94 2.74 2.79 3.21 3.20 3.05 2.56 2.00 1.63 1.62 1.84 2.22 2.23 2.26 2.13 2.45 2.76
1.99 2.29 2.64 2.95 3.03 2.93 2.80 2.64 2.54 2.34 2.27 2.29 2.27 2.27 2.16 2.03 1.90 1.98 2.15 2.43 2.59 2.32 2.84 2.45 2.58 2.84 2.99 2.80 2.79 2.62 2.72 2.94 2.99 2.74 2.21 1.74 1.73 1.95 2.17 2.01 2.01 2.36 2.68
1.42 1.83 2.40 2.88 3.10 2.98 2.64 2.51 2.63 2.48 2.38 2.33 2.20 2.39 2.24 2.08 1.90 1.82 2.11 2.38 2.50 2.37 2.53 2.58 2.86 2.76 2.71 2.70 2.75 2.81 2.92 2.87 2.64 2.78 2.70 2.36 2.05 1.62 1.54 1.70 1.98 2.17 2.38
1.23 1.49 1.95 2.38 2.66 2.71 2.57 2.45 2.51 2.59 2.55 2.41 2.26 2.23 2.05 2.00 1.94 1.86 2.06 2.36 2.34 2.36 2.54 2.52 2.67 2.67 2.73 2.82 2.66 2.60 2.84 2.82 2.72 2.80 2.50 2.30 2.22 1.62 1.38 1.42 1.62 2.01 2.19